This demonstration page uses our WeatherBlox Daily Observations layout. Learn more.

Left ArrowRight Arrow

Hourly Observations for August 7, 2016

Temp ( °F °C ) Dew Point ( °F °C ) Humidity (%) Winds ( mph kmh ) Pressure ( in mb ) Visibility ( mi km ) Precip ( " mm )
12:18 am 00:18 Clear 66 19 63 17 88 88 N 7 11 30 1016 10 16.0934 N/A
12:39 am 00:39 Partly Cloudy 66 19 61 16 83 83 N 6 9 30 1016 10 16.0934 N/A
12:59 am 00:59 Mostly Cloudy 66 19 63 17 88 88 N 3 6 30 1016 10 16.0934 N/A
1:18 am 01:18 Cloudy 66 19 63 17 88 88 N 5 7 30 1016 10 16.0934 N/A
1:39 am 01:39 Partly Cloudy 66 19 63 17 88 88 N 5 7 30 1016 10 16.0934 N/A
1:59 am 01:59 Partly Cloudy 66 19 61 16 83 83 N 5 7 30 1016 10 16.0934 N/A
2:18 am 02:18 Partly Cloudy 64 18 61 16 88 88 N 3 6 30 1016 10 16.0934 N/A
2:39 am 02:39 Partly Cloudy 64 18 61 16 88 88 Calm 30 1016 10 16.0934 N/A
2:58 am 02:58 Clear 64 18 61 16 88 88 Calm 30 1016 10 16.0934 N/A
3:18 am 03:18 Mostly Cloudy 64 18 61 16 88 88 N 5 7 30 1016 10 16.0934 N/A
3:39 am 03:39 Partly Cloudy 63 17 59 15 88 88 N 6 9 30 1016 10 16.0934 N/A
3:58 am 03:58 Clear 63 17 59 15 88 88 N 5 7 30 1016 10 16.0934 N/A
4:18 am 04:18 Clear 63 17 59 15 88 88 N 3 6 30 1016 10 16.0934 N/A
4:39 am 04:39 Clear 63 17 59 15 88 88 Calm 30 1016 10 16.0934 N/A
4:58 am 04:58 Clear 61 16 59 15 94 94 N 3 6 30 1016 10 16.0934 N/A
5:18 am 05:18 Clear 63 17 59 15 88 88 N 5 7 30 1016 10 16.0934 N/A
5:39 am 05:39 Clear 61 16 59 15 94 94 N 3 6 30 1016 10 16.0934 N/A
5:58 am 05:58 Clear 61 16 59 15 94 94 Calm 30 1016 10 16.0934 N/A
6:18 am 06:18 Clear 61 16 59 15 94 94 N 3 6 30 1016 10 16.0934 N/A
6:39 am 06:39 Clear 61 16 59 15 94 94 N 5 7 30.03 1017 10 16.0934 N/A
6:58 am 06:58 Sunny 61 16 59 15 94 94 Calm 30.03 1017 10 16.0934 N/A
7:18 am 07:18 Sunny 61 16 59 15 94 94 N 3 6 30.03 1017 10 16.0934 N/A
7:39 am 07:39 Sunny 61 16 59 15 94 94 N 3 6 30.03 1017 10 16.0934 N/A
7:58 am 07:58 Sunny 63 17 61 16 94 94 Calm 30.03 1017 10 16.0934 N/A
8:18 am 08:18 Sunny 64 18 61 16 88 88 N 3 6 30.03 1017 10 16.0934 N/A
8:39 am 08:39 Sunny 66 19 61 16 83 83 NNE 6 9 30.03 1017 10 16.0934 N/A
8:58 am 08:58 Sunny 68 20 63 17 83 83 NNE 6 9 30.03 1017 10 16.0934 N/A
9:18 am 09:18 Sunny 70 21 63 17 78 78 NNE 5 7 30 1016 10 16.0934 N/A
9:39 am 09:39 Sunny 72 22 63 17 73 73 N 6 9 30 1016 10 16.0934 N/A
9:58 am 09:58 Sunny 72 22 63 17 73 73 NE 3 6 30 1016 10 16.0934 N/A
10:18 am 10:18 Sunny 73 23 64 18 74 74 NE 3 6 30 1016 10 16.0934 N/A
10:39 am 10:39 Sunny 73 23 64 18 74 74 NE 5 7 30 1016 10 16.0934 N/A
10:58 am 10:58 Sunny 75 24 64 18 69 69 NE 5 7 30.03 1017 10 16.0934 N/A
11:19 am 11:19 Sunny 77 25 64 18 65 65 Calm 30.03 1017 10 16.0934 N/A
11:39 am 11:39 Sunny 77 25 64 18 65 65 Calm 30.03 1017 10 16.0934 N/A
11:58 am 11:58 Sunny 77 25 64 18 65 65 N 5 7 30.03 1017 10 16.0934 N/A
12:19 pm 12:19 Sunny 79 26 64 18 61 61 NNE 3 6 30 1016 10 16.0934 N/A
12:39 pm 12:39 Sunny 79 26 64 18 61 61 NW 3 6 30 1016 10 16.0934 N/A
12:58 pm 12:58 Sunny 81 27 64 18 58 58 Calm 30 1016 10 16.0934 N/A
1:19 pm 13:19 Sunny 81 27 64 18 58 58 Calm 30 1016 10 16.0934 N/A
1:39 pm 13:39 Sunny 81 27 64 18 58 58 ESE 3 6 30 1016 10 16.0934 N/A
1:58 pm 13:58 Sunny 81 27 64 18 58 58 Calm 30 1016 10 16.0934 N/A
2:19 pm 14:19 Sunny 82 28 64 18 55 55 Calm 30 1016 10 16.0934 N/A
2:39 pm 14:39 Sunny 82 28 63 17 51 51 SE 3 6 30 1016 10 16.0934 N/A
2:58 pm 14:58 Sunny 82 28 61 16 48 48 Calm 30 1016 10 16.0934 N/A
3:19 pm 15:19 Sunny 84 29 63 17 48 48 E 3 6 29.97 1015 10 16.0934 N/A
3:39 pm 15:39 Sunny 82 28 63 17 51 51 E 3 6 29.97 1015 10 16.0934 N/A
3:58 pm 15:58 Sunny 82 28 63 17 51 51 Calm 29.97 1015 10 16.0934 N/A
4:19 pm 16:19 Sunny 84 29 63 17 48 48 Calm 29.97 1015 10 16.0934 N/A
4:38 pm 16:38 Sunny 84 29 64 18 51 51 Calm 29.97 1015 10 16.0934 N/A
4:58 pm 16:58 Sunny 82 28 63 17 51 51 Calm 29.97 1015 10 16.0934 N/A
5:19 pm 17:19 Sunny 84 29 63 17 48 48 Calm 29.97 1015 10 16.0934 N/A
5:38 pm 17:38 Sunny 84 29 59 15 43 43 Calm 29.97 1015 10 16.0934 N/A
5:58 pm 17:58 Sunny 84 29 61 16 45 45 NNE 3 6 29.97 1015 10 16.0934 N/A
6:19 pm 18:19 Sunny 82 28 61 16 48 48 Calm 29.97 1015 10 16.0934 N/A
6:38 pm 18:38 Sunny 82 28 64 18 55 55 E 3 6 29.94 1014 10 16.0934 N/A
6:58 pm 18:58 Sunny 79 26 64 18 61 61 ENE 3 6 29.94 1014 10 16.0934 N/A
7:19 pm 19:19 Sunny 81 27 64 18 58 58 Calm 29.94 1014 10 16.0934 N/A
7:38 pm 19:38 Sunny 81 27 66 19 62 62 Calm 29.94 1014 10 16.0934 N/A
7:58 pm 19:58 Sunny 81 27 66 19 62 62 Calm 29.94 1014 10 16.0934 N/A
8:19 pm 20:19 Sunny 79 26 68 20 70 70 N 6 9 29.97 1015 10 16.0934 N/A
8:38 pm 20:38 Sunny 75 24 66 19 74 74 NNE 3 6 29.97 1015 10 16.0934 N/A
8:58 pm 20:58 Partly Cloudy 73 23 68 20 83 83 NNE 3 6 29.97 1015 10 16.0934 N/A
9:19 pm 21:19 Partly Cloudy 72 22 66 19 83 83 NNE 3 6 29.97 1015 10 16.0934 N/A
9:38 pm 21:38 Partly Cloudy 70 21 66 19 88 88 NNE 3 6 29.97 1015 10 16.0934 N/A
9:58 pm 21:58 Partly Cloudy 70 21 66 19 88 88 N 3 6 29.97 1015 10 16.0934 N/A
10:19 pm 22:19 Partly Cloudy 72 22 64 18 78 78 N 3 6 29.97 1015 10 16.0934 N/A
10:38 pm 22:38 Clear 70 21 64 18 83 83 Calm 29.97 1015 10 16.0934 N/A
10:59 pm 22:59 Clear 68 20 64 18 88 88 Calm 30 1016 10 16.0934 N/A
11:19 pm 23:19 Clear 70 21 64 18 83 83 Calm 29.97 1015 10 16.0934 N/A
11:38 pm 23:38 Clear 66 19 64 18 94 94 Calm 30 1016 10 16.0934 N/A
11:59 pm 23:59 Clear 68 20 64 18 88 88 Calm 30 1016 10 16.0934 N/A

Powered by AerisWeather